| time (UTC) | temp F | wind direction | speed MPH | gust MPH | rain 1hr in | rain 24hr in | rain mn in | humidity % | barometer mb |
| 20260502130606 | 82 | 135 | 1.0 | 0.0 | 0.00 | 0.00 | 0.00 | 21 | 1016.4 |
| 20260502130411 | 82 | 158 | 1.0 | 0.0 | 0.00 | 0.00 | 0.00 | 21 | 1016.4 |
| 20260502130210 | 82 | 135 | 5.0 | 0.0 | 0.00 | 0.00 | 0.00 | 20 | 1016.5 |
| 20260502123810 | 84 | 68 | 0.0 | 0.0 | 0.00 | 0.00 | 0.00 | 21 | 1016.5 |
| 20260502123609 | 84 | 68 | 0.0 | 0.0 | 0.00 | 0.00 | 0.00 | 21 | 1016.6 |
| 20260502123412 | 84 | 158 | 0.0 | 0.0 | 0.00 | 0.00 | 0.00 | 20 | 1016.6 |
| 20260502123207 | 84 | 158 | 1.0 | 0.0 | 0.00 | 0.00 | 0.00 | 21 | 1016.7 |
| 20260502123008 | 85 | 225 | 59.0 | 0.0 | 0.00 | 0.00 | 0.00 | 21 | 1016.6 |
| 20260502122910 | 85 | 68 | 0.0 | 0.0 | 0.00 | 0.00 | 0.00 | 21 | 1016.6 |
| 20260502122707 | 85 | 158 | 1.0 | 0.0 | 0.00 | 0.00 | 0.00 | 22 | 1016.8 |
| 20260502122510 | 85 | 45 | 1.0 | 0.0 | 0.00 | 0.00 | 0.00 | 22 | 1016.8 |
| 20260502122308 | 85 | 135 | 0.0 | 0.0 | 0.00 | 0.00 | 0.00 | 21 | 1016.8 |
| 20260502122111 | 85 | 135 | 0.0 | 0.0 | 0.00 | 0.00 | 0.00 | 21 | 1016.9 |
| 20260502121910 | 85 | 112 | 0.0 | 0.0 | 0.00 | 0.00 | 0.00 | 22 | 1017.1 |
| 20260502121710 | 85 | 158 | 0.0 | 0.0 | 0.00 | 0.00 | 0.00 | 21 | 1017.1 |
| 20260502121509 | 85 | 158 | 0.0 | 0.0 | 0.00 | 0.00 | 0.00 | 20 | 1017.1 |
| 20260502121411 | 85 | 158 | 0.0 | 0.0 | 0.00 | 0.00 | 0.00 | 21 | 1017.1 |
| 20260502121210 | 85 | 112 | 3.0 | 0.0 | 0.00 | 0.00 | 0.00 | 21 | 1017.1 |
| 20260502121008 | 85 | 112 | 2.0 | 0.0 | 0.00 | 0.00 | 0.00 | 21 | 1017.1 |
| 20260502120824 | 87 | 112 | 2.0 | 0.0 | 0.00 | 0.00 | 0.00 | 21 | 1017.2 |
| 20260502120607 | 87 | 112 | 2.0 | 0.0 | 0.00 | 0.00 | 0.00 | 21 | 1017.2 |
| 20260502120411 | 87 | 90 | 0.0 | 0.0 | 0.00 | 0.00 | 0.00 | 21 | 1017.2 |
| 20260502120207 | 87 | 90 | 0.0 | 0.0 | 0.00 | 0.00 | 0.00 | 22 | 1017.2 |
| 20260502115910 | 87 | 112 | 1.0 | 0.0 | 0.00 | 0.00 | 0.00 | 21 | 1017.3 |
| 20260502115707 | 87 | 112 | 5.0 | 0.0 | 0.00 | 0.00 | 0.00 | 22 | 1017.3 |
| 20260502115510 | 87 | 112 | 5.0 | 0.0 | 0.00 | 0.00 | 0.00 | 21 | 1017.3 |
| 20260502115310 | 87 | 135 | 3.0 | 0.0 | 0.00 | 0.00 | 0.00 | 21 | 1017.3 |
| 20260502115111 | 87 | 135 | 3.0 | 0.0 | 0.00 | 0.00 | 0.00 | 21 | 1017.4 |
| 20260502114910 | 88 | 158 | 1.0 | 0.0 | 0.00 | 0.00 | 0.00 | 21 | 1017.4 |
| 20260502114707 | 89 | 158 | 1.0 | 0.0 | 0.00 | 0.00 | 0.00 | 21 | 1017.5 |
| 20260502114208 | 89 | 135 | 0.0 | 0.0 | 0.00 | 0.00 | 0.00 | 22 | 1017.5 |
| 20260502114010 | 89 | 112 | 0.0 | 0.0 | 0.00 | 0.00 | 0.00 | 22 | 1017.6 |
| 20260502113810 | 88 | 112 | 2.0 | 0.0 | 0.00 | 0.00 | 0.00 | 22 | 1017.7 |
| 20260502113610 | 88 | 112 | 2.0 | 0.0 | 0.00 | 0.00 | 0.00 | 22 | 1017.7 |
| 20260502113410 | 88 | 68 | 0.0 | 0.0 | 0.00 | 0.00 | 0.00 | 22 | 1017.8 |
| 20260502113210 | 88 | 112 | 0.0 | 0.0 | 0.00 | 0.00 | 0.00 | 22 | 1017.8 |
| 20260502112907 | 87 | 135 | 1.0 | 0.0 | 0.00 | 0.00 | 0.00 | 22 | 1017.9 |
| 20260502112710 | 87 | 45 | 0.0 | 0.0 | 0.00 | 0.00 | 0.00 | 22 | 1018.0 |
| 20260502112510 | 86 | 112 | 2.0 | 0.0 | 0.00 | 0.00 | 0.00 | 23 | 1018.0 |
| 20260502112316 | 86 | 112 | 2.0 | 0.0 | 0.00 | 0.00 | 0.00 | 23 | 1018.0 |
| 20260502112106 | 86 | 112 | 0.0 | 0.0 | 0.00 | 0.00 | 0.00 | 22 | 1018.1 |
| 20260502111911 | 86 | 112 | 0.0 | 0.0 | 0.00 | 0.00 | 0.00 | 22 | 1018.2 |
| 20260502111708 | 86 | 112 | 0.0 | 0.0 | 0.00 | 0.00 | 0.00 | 22 | 1018.1 |
| 20260502111510 | 86 | 90 | 0.0 | 0.0 | 0.00 | 0.00 | 0.00 | 23 | 1018.1 |
| 20260502111307 | 85 | 90 | 0.0 | 0.0 | 0.00 | 0.00 | 0.00 | 23 | 1018.2 |
| 20260502111108 | 84 | 135 | 1.0 | 0.0 | 0.00 | 0.00 | 0.00 | 25 | 1018.3 |
| 20260502110907 | 84 | 112 | 0.0 | 0.0 | 0.00 | 0.00 | 0.00 | 25 | 1018.2 |
| 20260502110706 | 83 | 90 | 0.0 | 0.0 | 0.00 | 0.00 | 0.00 | 26 | 1018.3 |
| 20260502110511 | 83 | 90 | 0.0 | 0.0 | 0.00 | 0.00 | 0.00 | 26 | 1018.3 |
| 20260502110310 | 83 | 135 | 0.0 | 0.0 | 0.00 | 0.00 | 0.00 | 26 | 1018.4 |
| 20260502110209 | 83 | 135 | 0.0 | 0.0 | 0.00 | 0.00 | 0.00 | 26 | 1018.4 |
| 20260502105908 | 82 | 135 | 0.0 | 0.0 | 0.00 | 0.00 | 0.00 | 26 | 1018.4 |
| 20260502105708 | 81 | 135 | 0.0 | 0.0 | 0.00 | 0.00 | 0.00 | 27 | 1018.5 |
| 20260502105510 | 80 | 90 | 0.0 | 0.0 | 0.00 | 0.00 | 0.00 | 27 | 1018.5 |
| 20260502105311 | 80 | 112 | 0.0 | 0.0 | 0.00 | 0.00 | 0.00 | 28 | 1018.5 |
| 20260502105114 | 80 | 112 | 0.0 | 0.0 | 0.00 | 0.00 | 0.00 | 28 | 1018.5 |
| 20260502104911 | 79 | 112 | 0.0 | 0.0 | 0.00 | 0.00 | 0.00 | 28 | 1018.5 |
| 20260502104707 | 79 | 90 | 0.0 | 0.0 | 0.00 | 0.00 | 0.00 | 28 | 1018.6 |
| 20260502104511 | 78 | 45 | 0.0 | 0.0 | 0.00 | 0.00 | 0.00 | 28 | 1018.7 |
| 20260502104309 | 77 | 135 | 0.0 | 0.0 | 0.00 | 0.00 | 0.00 | 28 | 1018.7 |
| 20260502104116 | 77 | 135 | 0.0 | 0.0 | 0.00 | 0.00 | 0.00 | 29 | 1018.7 |
| 20260502103912 | 77 | 158 | 0.0 | 0.0 | 0.00 | 0.00 | 0.00 | 29 | 1018.8 |
| 20260502103707 | 77 | 112 | 0.0 | 0.0 | 0.00 | 0.00 | 0.00 | 28 | 1018.9 |
| 20260502103508 | 77 | 112 | 0.0 | 0.0 | 0.00 | 0.00 | 0.00 | 29 | 1018.9 |
| 20260502103310 | 76 | 90 | 1.0 | 0.0 | 0.00 | 0.00 | 0.00 | 31 | 1019.0 |
| 20260502103110 | 75 | 135 | 2.0 | 0.0 | 0.00 | 0.00 | 0.00 | 31 | 1019.0 |
| 20260502102913 | 75 | 90 | 0.0 | 0.0 | 0.00 | 0.00 | 0.00 | 32 | 1019.0 |
| 20260502102712 | 74 | 90 | 0.0 | 0.0 | 0.00 | 0.00 | 0.00 | 31 | 1019.0 |
| 20260502102509 | 74 | 90 | 0.0 | 0.0 | 0.00 | 0.00 | 0.00 | 32 | 1019.1 |
| 20260502102316 | 74 | 90 | 0.0 | 0.0 | 0.00 | 0.00 | 0.00 | 32 | 1019.0 |
| 20260502102112 | 74 | 135 | 1.0 | 0.0 | 0.00 | 0.00 | 0.00 | 32 | 1019.0 |
| 20260502101908 | 74 | 135 | 1.0 | 0.0 | 0.00 | 0.00 | 0.00 | 33 | 1019.1 |
| 20260502101711 | 73 | 135 | 0.0 | 0.0 | 0.00 | 0.00 | 0.00 | 33 | 1019.1 |
| 20260502101512 | 73 | 45 | 0.0 | 0.0 | 0.00 | 0.00 | 0.00 | 33 | 1019.2 |
| 20260502101309 | 73 | 45 | 0.0 | 0.0 | 0.00 | 0.00 | 0.00 | 33 | 1019.2 |
| 20260502101111 | 73 | 68 | 0.0 | 0.0 | 0.00 | 0.00 | 0.00 | 34 | 1019.1 |
| 20260502100907 | 31 | 68 | 0.0 | 0.0 | 0.00 | 0.00 | 0.00 | 33 | 1019.2 |
| 20260502100711 | 72 | 112 | 1.0 | 0.0 | 0.00 | 0.00 | 0.00 | 34 | 1019.3 |
| 20260502100410 | 72 | 90 | 0.0 | 0.0 | 0.00 | 0.00 | 0.00 | 34 | 1019.3 |
| 20260502100214 | 72 | 112 | 0.0 | 0.0 | 0.00 | 0.00 | 0.00 | 34 | 1019.4 |
| 20260502091415 | 70 | 68 | 0.0 | 0.0 | 0.00 | 0.00 | 0.00 | 36 | 1020.2 |
| 20260502091213 | 70 | 68 | 0.0 | 0.0 | 0.00 | 0.00 | 0.00 | 36 | 1020.2 |
| 20260502091011 | 69 | 68 | 0.0 | 0.0 | 0.00 | 0.00 | 0.00 | 36 | 1020.2 |
| 20260502090811 | 69 | 135 | 0.0 | 0.0 | 0.00 | 0.00 | 0.00 | 36 | 1020.2 |
| 20260502090614 | 69 | 135 | 0.0 | 0.0 | 0.00 | 0.00 | 0.00 | 36 | 1020.2 |
| 20260502090411 | 69 | 135 | 0.0 | 0.0 | 0.00 | 0.00 | 0.00 | 36 | 1020.2 |
| 20260502090210 | 69 | 135 | 0.0 | 0.0 | 0.00 | 0.00 | 0.00 | 36 | 1020.2 |
| 20260502071510 | 62 | 0 | 0.0 | 0.0 | 0.00 | 0.00 | 0.00 | 46 | 1021.4 |
| 20260502071311 | 62 | 0 | 0.0 | 0.0 | 0.00 | 0.00 | 0.00 | 46 | 1021.3 |
| 20260502071111 | 62 | 0 | 0.0 | 0.0 | 0.00 | 0.00 | 0.00 | 47 | 1021.4 |
| 20260502070910 | 62 | 0 | 0.0 | 0.0 | 0.00 | 0.00 | 0.00 | 47 | 1021.5 |
| 20260502070707 | 62 | 0 | 0.0 | 0.0 | 0.00 | 0.00 | 0.00 | 48 | 1021.5 |
| 20260502070510 | 62 | 0 | 0.0 | 0.0 | 0.00 | 0.00 | 0.00 | 48 | 1021.6 |
| 20260502070412 | 62 | 0 | 0.0 | 0.0 | 0.00 | 0.00 | 0.00 | 48 | 1021.6 |
| 20260502070214 | 62 | 0 | 0.0 | 0.0 | 0.00 | 0.00 | 0.00 | 48 | 1021.6 |
| 20260502070015 | 62 | 0 | 0.0 | 0.0 | 0.00 | 0.00 | 0.00 | 48 | 1021.6 |
| 20260502065811 | 62 | 0 | 0.0 | 0.0 | 0.00 | 0.00 | 0.00 | 48 | 1021.6 |
| 20260502065611 | 62 | 0 | 0.0 | 0.0 | 0.00 | 0.00 | 0.00 | 48 | 1021.6 |
| 20260502065407 | 61 | 0 | 0.0 | 0.0 | 0.00 | 0.00 | 0.00 | 48 | 1021.6 |
| 20260502065207 | 61 | 0 | 0.0 | 0.0 | 0.00 | 0.00 | 0.00 | 49 | 1021.6 |
| 20260502065110 | 61 | 0 | 0.0 | 0.0 | 0.00 | 0.00 | 0.00 | 49 | 1021.7 |
| 20260502064907 | 62 | 0 | 0.0 | 0.0 | 0.00 | 0.00 | 0.00 | 49 | 1021.7 |
| 20260502064708 | 62 | 0 | 0.0 | 0.0 | 0.00 | 0.00 | 0.00 | 48 | 1021.7 |
| 20260502064508 | 62 | 0 | 0.0 | 0.0 | 0.00 | 0.00 | 0.00 | 48 | 1021.7 |
| 20260502064310 | 62 | 0 | 0.0 | 0.0 | 0.00 | 0.00 | 0.00 | 48 | 1021.7 |
| 20260502064131 | 62 | 0 | 0.0 | 0.0 | 0.00 | 0.00 | 0.00 | 48 | 1021.8 |
| 20260502063907 | 61 | 0 | 0.0 | 0.0 | 0.00 | 0.00 | 0.00 | 48 | 1021.7 |
| 20260502063810 | 61 | 0 | 0.0 | 0.0 | 0.00 | 0.00 | 0.00 | 48 | 1021.7 |
| 20260502063607 | 61 | 0 | 0.0 | 0.0 | 0.00 | 0.00 | 0.00 | 48 | 1021.8 |
| 20260502063410 | 61 | 0 | 0.0 | 0.0 | 0.00 | 0.00 | 0.00 | 48 | 1021.7 |
| 20260502063207 | 61 | 0 | 0.0 | 0.0 | 0.00 | 0.00 | 0.00 | 48 | 1021.7 |
| 20260502063008 | 61 | 0 | 0.0 | 0.0 | 0.00 | 0.00 | 0.00 | 49 | 1021.7 |
| 20260502062813 | 60 | 0 | 0.0 | 0.0 | 0.00 | 0.00 | 0.00 | 49 | 1021.7 |
| 20260502062611 | 60 | 0 | 0.0 | 0.0 | 0.00 | 0.00 | 0.00 | 49 | 1021.7 |
| 20260502062410 | 60 | 0 | 0.0 | 0.0 | 0.00 | 0.00 | 0.00 | 49 | 1021.7 |
| 20260502062118 | 60 | 0 | 0.0 | 0.0 | 0.00 | 0.00 | 0.00 | 50 | 1021.7 |
| 20260502061909 | 60 | 0 | 0.0 | 0.0 | 0.00 | 0.00 | 0.00 | 50 | 1021.7 |
| 20260502061707 | 60 | 0 | 0.0 | 0.0 | 0.00 | 0.00 | 0.00 | 52 | 1021.7 |
| 20260502061409 | 60 | 0 | 0.0 | 0.0 | 0.00 | 0.00 | 0.00 | 52 | 1021.7 |
| 20260502061209 | 59 | 0 | 0.0 | 0.0 | 0.00 | 0.00 | 0.00 | 53 | 1021.7 |
| 20260502061009 | 59 | 0 | 0.0 | 0.0 | 0.00 | 0.00 | 0.00 | 53 | 1021.7 |
| 20260502060709 | 59 | 0 | 0.0 | 0.0 | 0.00 | 0.00 | 0.00 | 57 | 1021.8 |
| 20260502060512 | 58 | 0 | 0.0 | 0.0 | 0.00 | 0.00 | 0.00 | 57 | 1021.8 |
| 20260502060307 | 58 | 0 | 0.0 | 0.0 | 0.00 | 0.00 | 0.00 | 57 | 1021.8 |
| 20260502060108 | 58 | 0 | 0.0 | 0.0 | 0.00 | 0.00 | 0.00 | 57 | 1021.8 |
| 20260502055907 | 58 | 0 | 0.0 | 0.0 | 0.00 | 0.00 | 0.00 | 57 | 1021.8 |
| 20260502055714 | 57 | 0 | 0.0 | 0.0 | 0.00 | 0.00 | 0.00 | 59 | 1021.8 |
| 20260502055507 | 55 | 0 | 0.0 | 0.0 | 0.00 | 0.00 | 0.00 | 61 | 1021.9 |
| 20260502055310 | 55 | 292 | 0.0 | 0.0 | 0.00 | 0.00 | 0.00 | 64 | 1021.9 |
| 20260502055107 | 53 | 292 | 0.0 | 0.0 | 0.00 | 0.00 | 0.00 | 66 | 1021.9 |
| 20260502054907 | 52 | 292 | 0.0 | 0.0 | 0.00 | 0.00 | 0.00 | 68 | 1021.8 |
| 20260502054707 | 49 | 292 | 0.0 | 0.0 | 0.00 | 0.00 | 0.00 | 72 | 1022.0 |
| 20260502054509 | 49 | 292 | 0.0 | 0.0 | 0.00 | 0.00 | 0.00 | 72 | 1022.0 |
| 20260502054309 | 47 | 338 | 0.0 | 0.0 | 0.00 | 0.00 | 0.00 | 75 | 1021.9 |
| 20260502054112 | 46 | 338 | 0.0 | 0.0 | 0.00 | 0.00 | 0.00 | 76 | 1022.0 |
| 20260502054014 | 46 | 338 | 0.0 | 0.0 | 0.00 | 0.00 | 0.00 | 76 | 1022.0 |
| 20260502053810 | 45 | 338 | 0.0 | 0.0 | 0.00 | 0.00 | 0.00 | 77 | 1022.0 |
| 20260502053609 | 44 | 338 | 0.0 | 0.0 | 0.00 | 0.00 | 0.00 | 76 | 1022.0 |
| 20260502053418 | 43 | 338 | 0.0 | 0.0 | 0.00 | 0.00 | 0.00 | 75 | 1022.0 |
| 20260502053210 | 42 | 270 | 0.0 | 0.0 | 0.00 | 0.00 | 0.00 | 74 | 1022.0 |
| 20260502053010 | 42 | 270 | 0.0 | 0.0 | 0.00 | 0.00 | 0.00 | 75 | 1022.0 |
| 20260502052815 | 42 | 270 | 0.0 | 0.0 | 0.00 | 0.00 | 0.00 | 76 | 1021.9 |
| 20260502052506 | 42 | 270 | 0.0 | 0.0 | 0.00 | 0.00 | 0.00 | 76 | 1022.0 |
| 20260502052309 | 42 | 270 | 0.0 | 0.0 | 0.00 | 0.00 | 0.00 | 76 | 1022.0 |
| 20260502052107 | 42 | 270 | 0.0 | 0.0 | 0.00 | 0.00 | 0.00 | 76 | 1022.1 |
| 20260502051906 | 42 | 270 | 0.0 | 0.0 | 0.00 | 0.00 | 0.00 | 76 | 1022.1 |
| 20260502051716 | 42 | 248 | 0.0 | 0.0 | 0.00 | 0.00 | 0.00 | 76 | 1022.1 |
| 20260502051511 | 42 | 270 | 0.0 | 0.0 | 0.00 | 0.00 | 0.00 | 76 | 1022.0 |
| 20260502051310 | 42 | 270 | 0.0 | 0.0 | 0.00 | 0.00 | 0.00 | 76 | 1022.2 |
| 20260502051106 | 42 | 270 | 0.0 | 0.0 | 0.00 | 0.00 | 0.00 | 76 | 1022.2 |
| 20260502050914 | 42 | 270 | 0.0 | 0.0 | 0.00 | 0.00 | 0.00 | 76 | 1022.2 |
| 20260502050706 | 42 | 270 | 0.0 | 0.0 | 0.00 | 0.00 | 0.00 | 76 | 1022.2 |
| 20260502050507 | 42 | 270 | 0.0 | 0.0 | 0.00 | 0.00 | 0.00 | 75 | 1022.3 |
| 20260502050323 | 42 | 248 | 0.0 | 0.0 | 0.00 | 0.00 | 0.00 | 76 | 1022.1 |
| 20260502050210 | 42 | 248 | 0.0 | 0.0 | 0.00 | 0.00 | 0.00 | 76 | 1022.1 |
| 20260502050011 | 42 | 248 | 0.0 | 0.0 | 0.00 | 0.00 | 0.00 | 75 | 1022.1 |
| 20260502045712 | 42 | 248 | 0.0 | 0.0 | 0.00 | 0.00 | 0.00 | 75 | 1022.1 |
| 20260502045509 | 42 | 270 | 0.0 | 0.0 | 0.00 | 0.00 | 0.00 | 75 | 1022.1 |
| 20260502045307 | 42 | 270 | 0.0 | 0.0 | 0.00 | 0.00 | 0.00 | 75 | 1022.2 |
| 20260502045107 | 42 | 248 | 0.0 | 0.0 | 0.00 | 0.00 | 0.00 | 75 | 1022.1 |
| 20260502044906 | 42 | 248 | 0.0 | 0.0 | 0.00 | 0.00 | 0.00 | 75 | 1022.1 |
| 20260502044711 | 42 | 270 | 0.0 | 0.0 | 0.00 | 0.00 | 0.00 | 75 | 1022.0 |
| 20260502044510 | 41 | 270 | 0.0 | 0.0 | 0.00 | 0.00 | 0.00 | 75 | 1022.1 |
| 20260502044411 | 41 | 270 | 0.0 | 0.0 | 0.00 | 0.00 | 0.00 | 75 | 1022.0 |
| 20260502044249 | 41 | 270 | 0.0 | 0.0 | 0.00 | 0.00 | 0.00 | 75 | 1022.1 |
| 20260502044012 | 41 | 270 | 0.0 | 0.0 | 0.00 | 0.00 | 0.00 | 75 | 1022.1 |
| 20260502043810 | 41 | 270 | 0.0 | 0.0 | 0.00 | 0.00 | 0.00 | 75 | 1022.1 |
| 20260502043608 | 42 | 270 | 0.0 | 0.0 | 0.00 | 0.00 | 0.00 | 75 | 1022.1 |
| 20260502043409 | 41 | 270 | 0.0 | 0.0 | 0.00 | 0.00 | 0.00 | 75 | 1022.0 |
| 20260502043214 | 41 | 270 | 0.0 | 0.0 | 0.00 | 0.00 | 0.00 | 75 | 1022.2 |
| 20260502042909 | 41 | 270 | 0.0 | 0.0 | 0.00 | 0.00 | 0.00 | 75 | 1022.1 |
| 20260502042706 | 41 | 270 | 0.0 | 0.0 | 0.00 | 0.00 | 0.00 | 75 | 1022.1 |
| 20260502042511 | 41 | 270 | 0.0 | 0.0 | 0.00 | 0.00 | 0.00 | 75 | 1022.1 |
| 20260502042307 | 41 | 248 | 0.0 | 0.0 | 0.00 | 0.00 | 0.00 | 75 | 1022.0 |
| 20260502042110 | 41 | 270 | 0.0 | 0.0 | 0.00 | 0.00 | 0.00 | 75 | 1022.1 |
| 20260502041909 | 41 | 248 | 0.0 | 0.0 | 0.00 | 0.00 | 0.00 | 75 | 1022.2 |
| 20260502041709 | 41 | 248 | 0.0 | 0.0 | 0.00 | 0.00 | 0.00 | 75 | 1022.3 |
| 20260502041611 | 41 | 248 | 0.0 | 0.0 | 0.00 | 0.00 | 0.00 | 75 | 1022.3 |
| 20260502041406 | 41 | 248 | 0.0 | 0.0 | 0.00 | 0.00 | 0.00 | 75 | 1022.2 |
| 20260502041215 | 41 | 248 | 0.0 | 0.0 | 0.00 | 0.00 | 0.00 | 75 | 1022.1 |
| 20260502041012 | 41 | 248 | 0.0 | 0.0 | 0.00 | 0.00 | 0.00 | 75 | 1022.2 |
| 20260502040811 | 41 | 248 | 0.0 | 0.0 | 0.00 | 0.00 | 0.00 | 75 | 1022.3 |
| 20260502040614 | 41 | 248 | 0.0 | 0.0 | 0.00 | 0.00 | 0.00 | 75 | 1022.4 |
| 20260502040441 | 41 | 248 | 0.0 | 0.0 | 0.00 | 0.00 | 0.00 | 75 | 1022.3 |
| 20260501195809 | 53 | 270 | 0.0 | 0.0 | 0.00 | 0.00 | 0.00 | 49 | 1022.0 |
| 20260501195617 | 53 | 292 | 1.0 | 0.0 | 0.00 | 0.00 | 0.00 | 49 | 1021.8 |
| 20260501195315 | 53 | 292 | 0.0 | 0.0 | 0.00 | 0.00 | 0.00 | 49 | 1021.8 |
| 20260501195114 | 53 | 292 | 0.0 | 0.0 | 0.00 | 0.00 | 0.00 | 49 | 1021.8 |
| 20260501194909 | 53 | 292 | 1.0 | 0.0 | 0.00 | 0.00 | 0.00 | 49 | 1021.7 |
| 20260501194707 | 54 | 270 | 0.0 | 0.0 | 0.00 | 0.00 | 0.00 | 49 | 1021.7 |
| 20260501194510 | 54 | 270 | 0.0 | 0.0 | 0.00 | 0.00 | 0.00 | 49 | 1021.7 |
| 20260501194311 | 54 | 292 | 1.0 | 0.0 | 0.00 | 0.00 | 0.00 | 49 | 1021.7 |
| 20260501194008 | 54 | 270 | 0.0 | 0.0 | 0.00 | 0.00 | 0.00 | 48 | 1021.6 |
| 20260501193809 | 54 | 270 | 0.0 | 0.0 | 0.00 | 0.00 | 0.00 | 48 | 1021.6 |
| 20260501193610 | 54 | 270 | 0.0 | 0.0 | 0.00 | 0.00 | 0.00 | 48 | 1021.5 |
| 20260501193409 | 54 | 248 | 0.0 | 0.0 | 0.00 | 0.00 | 0.00 | 48 | 1021.6 |
| 20260501193209 | 54 | 292 | 1.0 | 0.0 | 0.00 | 0.00 | 0.00 | 48 | 1021.5 |
| 20260501193015 | 54 | 248 | 0.0 | 0.0 | 0.00 | 0.00 | 0.00 | 48 | 1021.5 |
| 20260501192813 | 54 | 270 | 0.0 | 0.0 | 0.00 | 0.00 | 0.00 | 48 | 1021.5 |
| 20260501192614 | 54 | 292 | 0.0 | 0.0 | 0.00 | 0.00 | 0.00 | 48 | 1021.5 |
| 20260501192412 | 54 | 292 | 0.0 | 0.0 | 0.00 | 0.00 | 0.00 | 47 | 1021.4 |
| 20260501192211 | 55 | 292 | 1.0 | 0.0 | 0.00 | 0.00 | 0.00 | 47 | 1021.3 |
| 20260501192012 | 55 | 315 | 1.0 | 0.0 | 0.00 | 0.00 | 0.00 | 47 | 1021.4 |
| 20260501191809 | 55 | 270 | 1.0 | 0.0 | 0.00 | 0.00 | 0.00 | 47 | 1021.3 |
| 20260501191607 | 55 | 292 | 1.0 | 0.0 | 0.00 | 0.00 | 0.00 | 47 | 1021.4 |
| 20260501191409 | 55 | 270 | 0.0 | 0.0 | 0.00 | 0.00 | 0.00 | 47 | 1021.3 |
| 20260501191309 | 55 | 270 | 0.0 | 0.0 | 0.00 | 0.00 | 0.00 | 47 | 1021.4 |
| 20260501191111 | 55 | 270 | 1.0 | 0.0 | 0.00 | 0.00 | 0.00 | 46 | 1021.3 |
| 20260501190912 | 55 | 292 | 0.0 | 0.0 | 0.00 | 0.00 | 0.00 | 47 | 1021.3 |
| 20260501190707 | 56 | 270 | 1.0 | 0.0 | 0.00 | 0.00 | 0.00 | 46 | 1021.3 |
| 20260501190512 | 56 | 270 | 0.0 | 0.0 | 0.00 | 0.00 | 0.00 | 46 | 1021.3 |
| 20260501190308 | 56 | 270 | 1.0 | 0.0 | 0.00 | 0.00 | 0.00 | 46 | 1021.3 |
| 20260501190111 | 56 | 270 | 0.0 | 0.0 | 0.00 | 0.00 | 0.00 | 46 | 1021.2 |
| 20260501185926 | 56 | 270 | 2.0 | 0.0 | 0.00 | 0.00 | 0.00 | 45 | 1021.1 |
| 20260501185623 | 56 | 270 | 0.0 | 0.0 | 0.00 | 0.00 | 0.00 | 45 | 1021.1 |
| 20260501185414 | 56 | 270 | 0.0 | 0.0 | 0.00 | 0.00 | 0.00 | 45 | 1021.1 |
| 20260501185208 | 57 | 270 | 0.0 | 0.0 | 0.00 | 0.00 | 0.00 | 45 | 1021.0 |
| 20260501185011 | 57 | 292 | 1.0 | 0.0 | 0.00 | 0.00 | 0.00 | 44 | 1021.0 |
| 20260501184809 | 56 | 315 | 3.0 | 0.0 | 0.00 | 0.00 | 0.00 | 43 | 1021.0 |
| 20260501184715 | 56 | 315 | 3.0 | 0.0 | 0.00 | 0.00 | 0.00 | 43 | 1021.0 |
| 20260501184511 | 56 | 292 | 1.0 | 0.0 | 0.00 | 0.00 | 0.00 | 44 | 1020.9 |
| 20260501184312 | 56 | 292 | 3.0 | 0.0 | 0.00 | 0.00 | 0.00 | 45 | 1020.9 |
| 20260501184111 | 56 | 270 | 2.0 | 0.0 | 0.00 | 0.00 | 0.00 | 45 | 1021.0 |
| 20260501183909 | 56 | 270 | 0.0 | 0.0 | 0.00 | 0.00 | 0.00 | 45 | 1020.8 |
| 20260501183711 | 56 | 292 | 0.0 | 0.0 | 0.00 | 0.00 | 0.00 | 46 | 1020.8 |
| 20260501183511 | 56 | 270 | 0.0 | 0.0 | 0.00 | 0.00 | 0.00 | 46 | 1020.7 |
| 20260501183411 | 56 | 270 | 0.0 | 0.0 | 0.00 | 0.00 | 0.00 | 46 | 1020.7 |
| 20260501183210 | 56 | 248 | 3.0 | 0.0 | 0.00 | 0.00 | 0.00 | 45 | 1020.6 |
| 20260501182811 | 56 | 292 | 1.0 | 0.0 | 0.00 | 0.00 | 0.00 | 45 | 1020.6 |
| 20260501182614 | 57 | 202 | 2.0 | 0.0 | 0.00 | 0.00 | 0.00 | 45 | 1020.5 |
| 20260501182512 | 57 | 270 | 1.0 | 0.0 | 0.00 | 0.00 | 0.00 | 45 | 1020.5 |
| 20260501182307 | 57 | 248 | 0.0 | 0.0 | 0.00 | 0.00 | 0.00 | 45 | 1020.6 |
| 20260501182110 | 57 | 248 | 0.0 | 0.0 | 0.00 | 0.00 | 0.00 | 45 | 1020.5 |
| 20260501181912 | 57 | 270 | 0.0 | 0.0 | 0.00 | 0.00 | 0.00 | 45 | 1020.5 |
| 20260501181706 | 57 | 270 | 2.0 | 0.0 | 0.00 | 0.00 | 0.00 | 44 | 1020.5 |
| 20260501181408 | 57 | 270 | 4.0 | 0.0 | 0.00 | 0.00 | 0.00 | 45 | 1020.4 |
| 20260501181211 | 57 | 270 | 4.0 | 0.0 | 0.00 | 0.00 | 0.00 | 45 | 1020.4 |
| 20260501181009 | 57 | 270 | 3.0 | 0.0 | 0.00 | 0.00 | 0.00 | 45 | 1020.4 |
| 20260501180811 | 57 | 292 | 2.0 | 0.0 | 0.00 | 0.00 | 0.00 | 45 | 1020.3 |
| 20260501180616 | 58 | 270 | 3.0 | 0.0 | 0.00 | 0.00 | 0.00 | 44 | 1020.3 |
| 20260501180411 | 58 | 248 | 0.0 | 0.0 | 0.00 | 0.00 | 0.00 | 43 | 1020.2 |
| 20260501180209 | 58 | 270 | 1.0 | 0.0 | 0.00 | 0.00 | 0.00 | 43 | 1020.3 |
| 20260501175926 | 58 | 270 | 0.0 | 0.0 | 0.00 | 0.00 | 0.00 | 43 | 1020.2 |
| 20260501175606 | 58 | 248 | 2.0 | 0.0 | 0.00 | 0.00 | 0.00 | 43 | 1020.2 |
| 20260501175407 | 58 | 248 | 2.0 | 0.0 | 0.00 | 0.00 | 0.00 | 44 | 1020.1 |
| 20260501175211 | 58 | 248 | 3.0 | 0.0 | 0.00 | 0.00 | 0.00 | 44 | 1020.0 |
| 20260501174910 | 58 | 292 | 0.0 | 0.0 | 0.00 | 0.00 | 0.00 | 44 | 1020.1 |
| 20260501174711 | 58 | 248 | 5.0 | 0.0 | 0.00 | 0.00 | 0.00 | 43 | 1020.0 |
| 20260501174510 | 58 | 248 | 3.0 | 0.0 | 0.00 | 0.00 | 0.00 | 43 | 1019.9 |
| 20260501174311 | 58 | 270 | 0.0 | 0.0 | 0.00 | 0.00 | 0.00 | 43 | 1020.0 |
| 20260501174110 | 58 | 270 | 0.0 | 0.0 | 0.00 | 0.00 | 0.00 | 43 | 1020.0 |
| 20260501173916 | 59 | 270 | 1.0 | 0.0 | 0.00 | 0.00 | 0.00 | 43 | 1019.9 |
| 20260501173607 | 59 | 270 | 5.0 | 0.0 | 0.00 | 0.00 | 0.00 | 43 | 1020.0 |
| 20260501173410 | 59 | 270 | 1.0 | 0.0 | 0.00 | 0.00 | 0.00 | 43 | 1020.0 |
| 20260501173211 | 59 | 270 | 1.0 | 0.0 | 0.00 | 0.00 | 0.00 | 43 | 1019.9 |
| 20260501173010 | 59 | 248 | 3.0 | 0.0 | 0.00 | 0.00 | 0.00 | 43 | 1019.9 |
| 20260501172606 | 59 | 292 | 5.0 | 0.0 | 0.00 | 0.00 | 0.00 | 41 | 1019.9 |
| 20260501172510 | 59 | 292 | 5.0 | 0.0 | 0.00 | 0.00 | 0.00 | 41 | 1019.9 |
| 20260501172110 | 59 | 292 | 0.0 | 0.0 | 0.00 | 0.00 | 0.00 | 42 | 1019.7 |
| 20260501171913 | 59 | 248 | 0.0 | 0.0 | 0.00 | 0.00 | 0.00 | 43 | 1019.7 |
| 20260501171707 | 59 | 292 | 0.0 | 0.0 | 0.00 | 0.00 | 0.00 | 43 | 1019.8 |
| 20260501171511 | 59 | 292 | 0.0 | 0.0 | 0.00 | 0.00 | 0.00 | 43 | 1019.8 |
| 20260501171343 | 59 | 292 | 0.0 | 0.0 | 0.00 | 0.00 | 0.00 | 43 | 1019.7 |
| 20260501171212 | 59 | 292 | 0.0 | 0.0 | 0.00 | 0.00 | 0.00 | 44 | 1019.7 |
| 20260501171009 | 59 | 315 | 1.0 | 0.0 | 0.00 | 0.00 | 0.00 | 43 | 1019.6 |
| 20260501170807 | 59 | 270 | 0.0 | 0.0 | 0.00 | 0.00 | 0.00 | 43 | 1019.7 |
| 20260501170611 | 59 | 292 | 0.0 | 0.0 | 0.00 | 0.00 | 0.00 | 44 | 1019.7 |
| 20260501170412 | 59 | 270 | 0.0 | 0.0 | 0.00 | 0.00 | 0.00 | 45 | 1019.6 |
| 20260501170211 | 59 | 292 | 0.0 | 0.0 | 0.00 | 0.00 | 0.00 | 43 | 1019.6 |
| 20260501170129 | 59 | 292 | 0.0 | 0.0 | 0.00 | 0.00 | 0.00 | 43 | 1019.6 |
| 20260501165710 | 59 | 248 | 0.0 | 0.0 | 0.00 | 0.00 | 0.00 | 44 | 1019.6 |
| 20260501165512 | 59 | 270 | 0.0 | 0.0 | 0.00 | 0.00 | 0.00 | 45 | 1019.6 |
| 20260501165309 | 59 | 270 | 0.0 | 0.0 | 0.00 | 0.00 | 0.00 | 45 | 1019.6 |
| 20260501165110 | 59 | 248 | 0.0 | 0.0 | 0.00 | 0.00 | 0.00 | 45 | 1019.5 |
| 20260501164911 | 59 | 248 | 0.0 | 0.0 | 0.00 | 0.00 | 0.00 | 45 | 1019.5 |
| 20260501164710 | 59 | 270 | 0.0 | 0.0 | 0.00 | 0.00 | 0.00 | 45 | 1019.4 |
| 20260501164410 | 59 | 270 | 0.0 | 0.0 | 0.00 | 0.00 | 0.00 | 45 | 1019.5 |
| 20260501164206 | 60 | 270 | 0.0 | 0.0 | 0.00 | 0.00 | 0.00 | 45 | 1019.5 |
| 20260501164007 | 60 | 248 | 1.0 | 0.0 | 0.00 | 0.00 | 0.00 | 44 | 1019.5 |
| 20260501163808 | 60 | 248 | 0.0 | 0.0 | 0.00 | 0.00 | 0.00 | 44 | 1019.5 |
| 20260501163607 | 60 | 270 | 2.0 | 0.0 | 0.00 | 0.00 | 0.00 | 43 | 1019.6 |
| 20260501163409 | 60 | 270 | 2.0 | 0.0 | 0.00 | 0.00 | 0.00 | 43 | 1019.5 |
| 20260501163209 | 60 | 270 | 0.0 | 0.0 | 0.00 | 0.00 | 0.00 | 43 | 1019.5 |
| 20260501163013 | 60 | 270 | 0.0 | 0.0 | 0.00 | 0.00 | 0.00 | 43 | 1019.6 |
| 20260501162816 | 61 | 270 | 0.0 | 0.0 | 0.00 | 0.00 | 0.00 | 42 | 1019.5 |
| 20260501162210 | 62 | 248 | 0.0 | 0.0 | 0.00 | 0.00 | 0.00 | 40 | 1019.6 |
| 20260501162011 | 62 | 248 | 2.0 | 0.0 | 0.00 | 0.00 | 0.00 | 40 | 1019.6 |
| 20260501161807 | 63 | 270 | 0.0 | 0.0 | 0.00 | 0.00 | 0.00 | 39 | 1019.5 |
| 20260501161610 | 64 | 270 | 0.0 | 0.0 | 0.00 | 0.00 | 0.00 | 38 | 1019.5 |
| 20260501161411 | 64 | 248 | 0.0 | 0.0 | 0.00 | 0.00 | 0.00 | 36 | 1019.6 |
| 20260501161212 | 65 | 315 | 4.0 | 0.0 | 0.00 | 0.00 | 0.00 | 36 | 1019.4 |
| 20260501161016 | 66 | 292 | 0.0 | 0.0 | 0.00 | 0.00 | 0.00 | 35 | 1019.4 |
| 20260501160809 | 68 | 270 | 0.0 | 0.0 | 0.00 | 0.00 | 0.00 | 34 | 1019.4 |
| 20260501160610 | 68 | 270 | 0.0 | 0.0 | 0.00 | 0.00 | 0.00 | 34 | 1019.5 |
| 20260501160415 | 69 | 270 | 0.0 | 0.0 | 0.00 | 0.00 | 0.00 | 33 | 1019.5 |
| 20260501160211 | 71 | 270 | 0.0 | 0.0 | 0.00 | 0.00 | 0.00 | 31 | 1019.5 |
| 20260501160035 | 72 | 270 | 0.0 | 0.0 | 0.00 | 0.00 | 0.00 | 31 | 1019.5 |
| 20260501155708 | 74 | 270 | 0.0 | 0.0 | 0.00 | 0.00 | 0.00 | 32 | 1019.5 |
| 20260501155512 | 75 | 270 | 0.0 | 0.0 | 0.00 | 0.00 | 0.00 | 30 | 1019.4 |
| 20260501155113 | 75 | 248 | 2.0 | 0.0 | 0.00 | 0.00 | 0.00 | 30 | 1019.4 |
| 20260501154716 | 77 | 248 | 1.0 | 0.0 | 0.00 | 0.00 | 0.00 | 27 | 1019.5 |
| 20260501154309 | 80 | 248 | 0.0 | 0.0 | 0.00 | 0.00 | 0.00 | 26 | 1019.5 |
| 20260501154113 | 81 | 270 | 0.0 | 0.0 | 0.00 | 0.00 | 0.00 | 24 | 1019.5 |
| 20260501153909 | 83 | 270 | 0.0 | 0.0 | 0.00 | 0.00 | 0.00 | 24 | 1019.4 |
| 20260501153713 | 83 | 270 | 0.0 | 0.0 | 0.00 | 0.00 | 0.00 | 23 | 1019.4 |
| 20260501153616 | 83 | 270 | 0.0 | 0.0 | 0.00 | 0.00 | 0.00 | 23 | 1019.4 |
| 20260501153407 | 83 | 112 | 2.0 | 0.0 | 0.00 | 0.00 | 0.00 | 22 | 1019.4 |
| 20260501153214 | 83 | 112 | 2.0 | 0.0 | 0.00 | 0.00 | 0.00 | 22 | 1019.4 |
| 20260501153011 | 83 | 112 | 2.0 | 0.0 | 0.00 | 0.00 | 0.00 | 22 | 1019.4 |
| 20260501152812 | 82 | 112 | 2.0 | 0.0 | 0.00 | 0.00 | 0.00 | 22 | 1019.4 |
| 20260501152612 | 82 | 135 | 0.0 | 0.0 | 0.00 | 0.00 | 0.00 | 21 | 1019.5 |
| 20260501152409 | 82 | 68 | 0.0 | 0.0 | 0.00 | 0.00 | 0.00 | 21 | 1019.5 |
| 20260501152314 | 82 | 68 | 0.0 | 0.0 | 0.00 | 0.00 | 0.00 | 21 | 1019.4 |
| 20260501152112 | 82 | 68 | 0.0 | 0.0 | 0.00 | 0.00 | 0.00 | 21 | 1019.6 |
| 20260501151914 | 82 | 135 | 5.0 | 0.0 | 0.00 | 0.00 | 0.00 | 21 | 1019.5 |
| 20260501151712 | 82 | 135 | 2.0 | 0.0 | 0.00 | 0.00 | 0.00 | 21 | 1019.5 |
| 20260501151507 | 82 | 135 | 2.0 | 0.0 | 0.00 | 0.00 | 0.00 | 21 | 1019.5 |
| 20260501151311 | 82 | 112 | 6.0 | 0.0 | 0.00 | 0.00 | 0.00 | 21 | 1019.4 |
| 20260501151109 | 82 | 112 | 6.0 | 0.0 | 0.00 | 0.00 | 0.00 | 21 | 1019.5 |
| 20260501151009 | 82 | 112 | 2.0 | 0.0 | 0.00 | 0.00 | 0.00 | 21 | 1019.5 |
| 20260501150807 | 82 | 112 | 0.0 | 0.0 | 0.00 | 0.00 | 0.00 | 22 | 1019.4 |
| 20260501150614 | 82 | 112 | 0.0 | 0.0 | 0.00 | 0.00 | 0.00 | 22 | 1019.6 |
| 20260501150409 | 81 | 90 | 0.0 | 0.0 | 0.00 | 0.00 | 0.00 | 21 | 1019.5 |
| 20260501150209 | 82 | 135 | 5.0 | 0.0 | 0.00 | 0.00 | 0.00 | 22 | 1019.5 |
| 20260501150031 | 82 | 135 | 4.0 | 0.0 | 0.00 | 0.00 | 0.00 | 22 | 1019.5 |